{"data":{"norad_id":56467,"intl_designator":"2023-064V","name":"STARLINK-6055","alt_names":[],"object_type":"PAYLOAD","status":"ACTIVE","operator":null,"country":"US","launch_date":"2023-05-10","launch_site_code":"AFWTR","launch_vehicle":null,"mission":null,"orbit_class":"UNKNOWN","rcs_meters":null,"size_class":null,"mass_kg":null,"dimensions":null,"purposes":["comms"],"wikipedia_slug":null,"has_3d_model":false,"image_url":null,"decayed_at":null,"tle_current":{"epoch":"2026-05-25T02:42:01.888704Z","epoch_age_seconds":55586,"freshness":"FRESH","line1":"1 56467U 23064V   26145.11252186 -.00000093  00000+0  67929-8 0  9990","line2":"2 56467  69.9991 291.8877 0002862 270.7560  89.3271 14.98331934167188","mean_motion":14.98331934,"eccentricity":0.0002862,"inclination_deg":69.9991,"raan_deg":291.8877,"arg_perigee_deg":270.756,"mean_anomaly_deg":89.3271,"bstar":6.7929e-9,"rev_number":16718,"period_min":96.106875073785,"perigee_km":570.06076672168,"apogee_km":574.03905370909,"semimajor_km":6950.1869102154,"source":"CELESTRAK","updated_at":"2026-05-25T13:38:18.070175Z"}}}